Weather in Kara-Kulja Village

Kyrgyzstan     40°37′56″N   73°35′25″E
temp.,
°C
wind,
m/s
gust,
m/s
humid.,
%
clouds,
%
prec.,
mm/h
press.,
hPa
HPBL,
m
7 may, fri
fri700:00+12e1179100 2.6 101715
03:00+12wsw1184100 0.1 101713
06:00+12ese228295 0.1 101727
09:00+16nw116453 0.0 1017390
12:00+19wnw22525 0.0 10161075
15:00+21wnw334988 0.1 10141616
18:00+20wnw235395 0.2 10141539
21:00+15ese117159 0.3 101711
8 may, sat
sat800:00+13ese337679 0.3 101726
03:00+13ese3376100 0.0 101728
06:00+12ese337459 0.0 101728
09:00+18se115919 0.0 1016401
12:00+21nw325155 0.1 10151558
15:00+22w2247100 0.3 10131783
18:00+20sse336499 0.8 1014206
21:00+15se337491 0.9 101633
9 may, sun
sun900:00+13ese337961 2.6 101636
03:00+13ese337512 0.6 101632
06:00+12ese337013 0.3 101527
09:00+19s11532 0.0 1014328
12:00+22wnw334634 0.0 10131514
15:00+23wnw234382 0.2 10122000
18:00+22wnw124388 0.3 10121784
21:00+16ese335693 0.0 101422
10 may, mon
mon1000:00+15ese325975 0.0 101419
03:00+13ese336258 0.0 101321
06:00+13ese33645 0.0 101229
09:00+19n015355 0.0 1011359
12:00+22wnw3347100 0.0 10101250
15:00+22wnw334680 0.0 10091758
18:00+22wnw3553100 0.1 10091589
21:00+15w2574100 0.9 1013155
11 may, tue
tue1100:00+15e117747 1.0 101316
03:00+14e1175100 0.1 101311
06:00+12ese1177100 0.2 101412
09:00+16nw1169100 0.8 101499
12:00+19w2454100 2.1 10141419
15:00+20wnw3446100 0.4 10132051
18:00+20nw2442100 0.4 10132172
21:00+14ese33555 0.0 101526